Regional Weather Roundup
Issued by NWS Midland/Odessa, TX

Skip options and go directly to product.
Home | Oldest Version | Previous Version | Current Version | All | Text Only | Save Text | Print | Product List | Glossary On

Skip product version selection by date and time.   
305
ASUS44 KMAF 301701
RWRMAF
MIDLAND AREA WEATHER ROUNDUP
NATIONAL WEATHER SERVICE MIDLAND TX
1200 PM CDT FRI SEP 30 2016

...IN SOUTHWEST TEXAS AND SOUTHEAST NEW MEXICO...

CITY           SKY/WX    TMP DP  RH WIND       PRES   REMARKS
ALPINE         CLOUDY    70  55  59 S6        30.36F
ANDREWS        FAIR      67  48  50 S6        30.30F
ARTESIA        CLOUDY    66  55  68 S14       30.26F
BIG SPRING     SUNNY     70  51  50 SE6       30.31S
CARLSBAD       PTSUNNY   70  54  56 S9        30.26S
DRYDEN           N/A     71  51  49 E12       30.25F
FORT STOCKTON  SUNNY     73  55  53 SE10      30.26S
GUAD PASS      CLOUDY    58  53  84 W21G32    30.39R
HOBBS          SUNNY     68  48  49 SE14      30.30F
MARFA          CLOUDY    66  54  65 S7        30.35S
MIDLAND AIRPK  SUNNY     71  46  40 S7        30.28F
MIDLAND INTL   MOSUNNY   71  47  42 S9        30.28S
ODESSA         SUNNY     73  47  39 S9        30.29S
PECOS          SUNNY     73  56  55 E3        30.25S
PRESIDIO       PTSUNNY   76  58  53 NE5       30.23S
SEMINOLE       SUNNY     69  49  48 S8        30.30F
SNYDER           N/A     67  49  53 S3        30.28F
WINK           SUNNY     73  49  42 SE9G20    30.25F
$$
...OTHER STATIONS IN TEXAS...

CITY           SKY/WX    TMP DP  RH WIND       PRES   REMARKS
ABILENE        SUNNY     69  52  54 CALM      30.26F
AMARILLO       SUNNY     72  48  42 S17G24    30.25F
AUSTIN         MOSUNNY   74  51  44 E5        30.21F
BROWNSVILLE    MOSUNNY   88  69  53 NE12      30.12S
CORPUS CHRISTI MOSUNNY   81  56  42 NE10      30.17F
DALLAS FTW     MOSUNNY   75  49  39 VRB5      30.21F
DEL RIO        SUNNY     73  55  53 S12       30.23F
EL PASO        PTSUNNY   65  58  78 S7        30.28F
HOUSTON INT    MOSUNNY   77  53  43 E9        30.19S
LUBBOCK        CLOUDY    70  47  43 S12       30.27F
SAN ANGELO     SUNNY     73  52  47 VRB5      30.26F
SAN ANTONIO    MOSUNNY   75  51  43 VRB3      30.22F
WACO           SUNNY     75  52  44 E6        30.22F
WICHITA FALLS  NOT AVBL
$$
...OTHER LOCATIONS IN NEW MEXICO...

CITY           SKY/WX    TMP DP  RH WIND       PRES   REMARKS
ALAMAGORDO     MOSUNNY   64  61  88 N6        30.30S
ALBUQUERQUE    MOSUNNY   64  54  69 S5        30.34F
CANNON AFB     CLOUDY    74  50  43 SW16G23   30.25F
CLOVIS         CLOUDY    72  52  49 S13G20    30.25F
HOLLOMAN AFB   NOT AVBL
ROSWELL        CLOUDY    66  52  60 S12       30.26R
RUIDOSO        CLOUDY    57  54  88 NE3       30.40F
SANTA FE       SUNNY     67  47  48 SW13      30.35F
TRUTH OR CONSE SUNNY     66  54  65 CALM      30.31S
TUCUMCARI      MOSUNNY   73  50  44 SW18G28   30.21S
$$

USA.gov is the U.S. government's official web portal to all federal, state and local government web resources and services.